Time,TemperatureF,DewpointF,PressureIn,WindDirection,WindDirectionDegrees,WindSpeedMPH,WindSpeedGustMPH,Humidity,HourlyPrecipIn,Conditions,Clouds,dailyrainin,SolarRadiationWatts/m^2,SoftwareType,DateUTC
2013-04-07 00:02:00,38.0,38.0,-100.00,WNW,297,10.0,20.0,100,0.01,,,0.29,0.000000,,2013-04-07 05:02:00,
2013-04-07 00:34:00,37.0,37.0,-100.00,WNW,303,13.0,20.0,100,0.00,,,0.29,0.000000,,2013-04-07 05:34:00,
2013-04-07 00:43:00,37.0,37.0,-100.00,WNW,303,13.0,20.0,100,0.00,,,0.29,0.000000,,2013-04-07 05:43:00,
2013-04-07 00:52:00,37.0,37.0,-100.00,WNW,303,13.0,20.0,100,0.00,,,0.29,0.000000,,2013-04-07 05:52:00,
2013-04-07 01:02:00,37.0,37.0,-100.00,WNW,303,13.0,20.0,100,0.00,,,0.29,0.000000,,2013-04-07 06:02:00,
2013-04-07 01:32:00,36.0,35.0,-100.00,NW,306,12.0,22.0,97,0.00,,,0.29,0.000000,,2013-04-07 06:32:00,
2013-04-07 01:43:00,36.0,35.0,-100.00,NW,306,12.0,22.0,97,0.00,,,0.29,0.000000,,2013-04-07 06:43:00,
2013-04-07 01:52:00,36.0,35.0,-100.00,NW,306,12.0,22.0,97,0.00,,,0.29,0.000000,,2013-04-07 06:52:00,
2013-04-07 02:02:00,36.0,35.0,-100.00,NW,306,12.0,22.0,97,0.00,,,0.29,0.000000,,2013-04-07 07:02:00,
2013-04-07 02:33:00,35.0,32.0,-100.00,NW,311,15.0,20.0,89,0.00,,,0.29,0.000000,,2013-04-07 07:33:00,
2013-04-07 02:42:00,35.0,32.0,-100.00,NW,311,15.0,20.0,89,0.00,,,0.29,0.000000,,2013-04-07 07:42:00,
2013-04-07 02:52:00,35.0,32.0,-100.00,NW,311,15.0,20.0,89,0.00,,,0.29,0.000000,,2013-04-07 07:52:00,
2013-04-07 03:02:00,35.0,32.0,-100.00,NW,311,15.0,20.0,89,0.00,,,0.29,0.000000,,2013-04-07 08:02:00,
2013-04-07 03:33:00,34.0,32.0,-100.00,NW,305,15.0,24.0,91,0.00,,,0.29,0.000000,,2013-04-07 08:33:00,
2013-04-07 03:43:00,34.0,32.0,-100.00,NW,305,15.0,24.0,91,0.00,,,0.29,0.000000,,2013-04-07 08:43:00,
2013-04-07 03:53:00,34.0,32.0,-100.00,NW,305,15.0,24.0,91,0.00,,,0.29,0.000000,,2013-04-07 08:53:00,
2013-04-07 04:02:00,34.0,32.0,-100.00,NW,305,15.0,24.0,91,0.00,,,0.29,0.000000,,2013-04-07 09:02:00,
2013-04-07 04:34:00,33.0,30.0,-100.00,NW,321,9.0,22.0,88,0.00,,,0.29,0.000000,,2013-04-07 09:34:00,
2013-04-07 04:44:00,33.0,30.0,-100.00,NW,321,9.0,22.0,88,0.00,,,0.29,0.000000,,2013-04-07 09:44:00,
2013-04-07 04:54:00,33.0,30.0,-100.00,NW,321,9.0,22.0,88,0.00,,,0.29,0.000000,,2013-04-07 09:54:00,
2013-04-07 05:04:00,33.0,30.0,-100.00,NW,321,9.0,22.0,88,0.00,,,0.29,0.000000,,2013-04-07 10:04:00,
2013-04-07 05:34:00,34.0,31.0,-100.00,NW,310,9.0,19.0,87,0.00,,,0.29,0.000000,,2013-04-07 10:34:00,
2013-04-07 05:43:00,34.0,31.0,-100.00,NW,310,9.0,19.0,87,0.00,,,0.29,0.000000,,2013-04-07 10:43:00,
2013-04-07 05:54:00,34.0,31.0,-100.00,NW,310,9.0,19.0,87,0.00,,,0.29,0.000000,,2013-04-07 10:54:00,
2013-04-07 06:03:00,34.0,31.0,-100.00,NW,310,9.0,19.0,87,0.00,,,0.29,0.000000,,2013-04-07 11:03:00,
2013-04-07 06:33:00,34.0,31.0,-100.00,NW,308,7.0,14.0,89,0.00,,,0.29,0.000000,,2013-04-07 11:33:00,
2013-04-07 06:43:00,34.0,31.0,-100.00,NW,308,7.0,14.0,89,0.00,,,0.29,0.000000,,2013-04-07 11:43:00,
2013-04-07 06:53:00,34.0,31.0,-100.00,NW,308,7.0,14.0,89,0.00,,,0.29,0.000000,,2013-04-07 11:53:00,
2013-04-07 07:02:00,34.0,31.0,-100.00,NW,308,7.0,14.0,89,0.00,,,0.29,0.000000,,2013-04-07 12:02:00,
2013-04-07 07:35:00,34.0,32.0,-100.00,NW,307,8.0,13.0,91,0.00,,,0.29,2.000000,,2013-04-07 12:35:00,
2013-04-07 07:43:00,34.0,32.0,-100.00,NW,307,8.0,13.0,91,0.00,,,0.29,2.000000,,2013-04-07 12:43:00,
2013-04-07 07:54:00,34.0,32.0,-100.00,NW,307,8.0,13.0,91,0.00,,,0.29,2.000000,,2013-04-07 12:54:00,
2013-04-07 08:03:00,34.0,32.0,-100.00,NW,307,8.0,13.0,91,0.00,,,0.29,2.000000,,2013-04-07 13:03:00,
2013-04-07 08:33:00,35.0,32.0,-100.00,NW,306,8.0,14.0,87,0.00,,,0.29,19.000000,,2013-04-07 13:33:00,
2013-04-07 08:43:00,35.0,32.0,-100.00,NW,306,8.0,14.0,87,0.00,,,0.29,19.000000,,2013-04-07 13:43:00,
2013-04-07 08:53:00,35.0,32.0,-100.00,NW,306,8.0,14.0,87,0.00,,,0.29,19.000000,,2013-04-07 13:53:00,
2013-04-07 09:02:00,35.0,32.0,-100.00,NW,306,8.0,14.0,87,0.00,,,0.29,19.000000,,2013-04-07 14:02:00,
2013-04-07 09:33:00,36.0,32.0,-100.00,NW,314,9.0,15.0,85,0.00,,,0.29,57.000000,,2013-04-07 14:33:00,
2013-04-07 09:44:00,36.0,32.0,-100.00,NW,314,9.0,15.0,85,0.00,,,0.29,57.000000,,2013-04-07 14:44:00,
2013-04-07 09:54:00,36.0,32.0,-100.00,NW,314,9.0,15.0,85,0.00,,,0.29,57.000000,,2013-04-07 14:54:00,
2013-04-07 10:03:00,36.0,32.0,-100.00,NW,314,9.0,15.0,85,0.00,,,0.29,57.000000,,2013-04-07 15:03:00,
2013-04-07 10:35:00,36.0,32.0,-100.00,NW,321,9.0,14.0,84,0.00,,,0.24,112.000000,,2013-04-07 15:35:00,
2013-04-07 10:45:00,36.0,32.0,-100.00,NW,321,9.0,14.0,84,0.00,,,0.24,112.000000,,2013-04-07 15:45:00,
2013-04-07 10:55:00,36.0,32.0,-100.00,NW,321,9.0,14.0,84,0.00,,,0.24,112.000000,,2013-04-07 15:55:00,
2013-04-07 11:04:00,36.0,32.0,-100.00,NW,321,9.0,14.0,84,0.00,,,0.24,112.000000,,2013-04-07 16:04:00,
2013-04-07 11:34:00,37.0,31.0,-100.00,NNW,334,8.0,14.0,80,0.00,,,0.24,191.000000,,2013-04-07 16:34:00,
2013-04-07 11:44:00,37.0,31.0,-100.00,NNW,334,8.0,14.0,80,0.00,,,0.24,191.000000,,2013-04-07 16:44:00,
2013-04-07 11:54:00,37.0,31.0,-100.00,NNW,334,8.0,14.0,80,0.00,,,0.24,191.000000,,2013-04-07 16:54:00,
2013-04-07 12:04:00,37.0,31.0,-100.00,NNW,334,8.0,14.0,80,0.00,,,0.24,191.000000,,2013-04-07 17:04:00,
2013-04-07 12:43:00,38.0,32.0,-100.00,WNW,298,7.0,12.0,79,0.00,,,0.24,216.000000,,2013-04-07 17:43:00,
2013-04-07 12:54:00,38.0,32.0,-100.00,WNW,298,7.0,12.0,79,0.00,,,0.24,216.000000,,2013-04-07 17:54:00,
2013-04-07 13:02:00,38.0,32.0,-100.00,WNW,298,7.0,12.0,79,0.00,,,0.24,216.000000,,2013-04-07 18:02:00,
2013-04-07 13:33:00,38.0,31.0,-100.00,WNW,285,8.0,12.0,75,0.00,,,0.24,244.000000,,2013-04-07 18:33:00,
2013-04-07 13:44:00,38.0,31.0,-100.00,WNW,285,8.0,12.0,75,0.00,,,0.24,244.000000,,2013-04-07 18:44:00,
2013-04-07 13:53:00,38.0,31.0,-100.00,WNW,285,8.0,12.0,75,0.00,,,0.24,244.000000,,2013-04-07 18:53:00,
2013-04-07 14:02:00,38.0,31.0,-100.00,WNW,285,8.0,12.0,75,0.00,,,0.24,244.000000,,2013-04-07 19:02:00,
2013-04-07 14:33:00,41.0,33.0,-100.00,WNW,299,6.0,12.0,73,0.00,,,0.24,370.000000,,2013-04-07 19:33:00,
2013-04-07 14:43:00,41.0,33.0,-100.00,WNW,299,6.0,12.0,73,0.00,,,0.24,370.000000,,2013-04-07 19:43:00,
2013-04-07 14:55:00,41.0,33.0,-100.00,WNW,299,6.0,12.0,73,0.00,,,0.24,370.000000,,2013-04-07 19:55:00,
2013-04-07 15:02:00,41.0,33.0,-100.00,WNW,299,6.0,12.0,73,0.00,,,0.24,370.000000,,2013-04-07 20:02:00,
2013-04-07 15:33:00,42.0,33.0,-100.00,WNW,301,4.0,10.0,71,0.00,,,0.24,390.000000,,2013-04-07 20:33:00,
2013-04-07 15:44:00,42.0,33.0,-100.00,WNW,301,4.0,10.0,71,0.00,,,0.24,390.000000,,2013-04-07 20:44:00,
2013-04-07 15:54:00,42.0,33.0,-100.00,WNW,301,4.0,10.0,71,0.00,,,0.24,390.000000,,2013-04-07 20:54:00,
2013-04-07 16:03:00,42.0,33.0,-100.00,WNW,301,4.0,10.0,71,0.00,,,0.24,390.000000,,2013-04-07 21:03:00,
2013-04-07 16:35:00,42.0,33.0,-100.00,NNW,346,3.0,9.0,69,0.00,,,0.24,379.000000,,2013-04-07 21:35:00,
2013-04-07 16:45:00,42.0,33.0,-100.00,NNW,346,3.0,9.0,69,0.00,,,0.24,379.000000,,2013-04-07 21:45:00,
2013-04-07 16:55:00,42.0,33.0,-100.00,NNW,346,3.0,9.0,69,0.00,,,0.24,379.000000,,2013-04-07 21:55:00,
2013-04-07 17:04:00,42.0,33.0,-100.00,NNW,346,3.0,9.0,69,0.00,,,0.24,379.000000,,2013-04-07 22:04:00,
2013-04-07 17:34:00,44.0,33.0,-100.00,South,181,6.0,9.0,64,0.00,,,0.24,462.000000,,2013-04-07 22:34:00,
2013-04-07 17:44:00,44.0,33.0,-100.00,South,181,6.0,9.0,64,0.00,,,0.24,462.000000,,2013-04-07 22:44:00,
2013-04-07 17:53:00,44.0,33.0,-100.00,South,181,6.0,9.0,64,0.00,,,0.24,462.000000,,2013-04-07 22:53:00,
2013-04-07 18:03:00,44.0,33.0,-100.00,South,181,6.0,9.0,64,0.00,,,0.24,462.000000,,2013-04-07 23:03:00,
2013-04-07 18:33:00,43.0,34.0,-100.00,South,185,7.0,11.0,69,0.00,,,0.22,295.000000,,2013-04-07 23:33:00,
2013-04-07 18:43:00,43.0,34.0,-100.00,South,185,7.0,11.0,69,0.00,,,0.22,295.000000,,2013-04-07 23:43:00,
2013-04-07 18:53:00,43.0,34.0,-100.00,South,185,7.0,11.0,69,0.00,,,0.22,295.000000,,2013-04-07 23:53:00,
2013-04-07 19:02:00,43.0,34.0,-100.00,South,185,7.0,11.0,69,0.00,,,0.22,295.000000,,2013-04-08 00:02:00,
2013-04-07 19:33:00,40.0,31.0,-100.00,SSE,166,4.0,10.0,71,0.00,,,0.18,115.000000,,2013-04-08 00:33:00,
2013-04-07 19:43:00,40.0,31.0,-100.00,SSE,166,4.0,10.0,71,0.00,,,0.18,115.000000,,2013-04-08 00:43:00,
2013-04-07 19:53:00,40.0,31.0,-100.00,SSE,166,4.0,10.0,71,0.00,,,0.18,115.000000,,2013-04-08 00:53:00,
2013-04-07 20:02:00,40.0,31.0,-100.00,SSE,166,4.0,10.0,71,0.00,,,0.18,115.000000,,2013-04-08 01:02:00,
2013-04-07 20:34:00,38.0,31.0,-100.00,ESE,106,5.0,6.0,77,0.00,,,0.12,9.000000,,2013-04-08 01:34:00,
2013-04-07 20:44:00,38.0,31.0,-100.00,ESE,106,5.0,6.0,77,0.00,,,0.12,9.000000,,2013-04-08 01:44:00,
2013-04-07 20:55:00,38.0,31.0,-100.00,ESE,106,5.0,6.0,77,0.00,,,0.12,9.000000,,2013-04-08 01:55:00,
2013-04-07 21:03:00,38.0,31.0,-100.00,ESE,106,5.0,6.0,77,0.00,,,0.12,9.000000,,2013-04-08 02:03:00,
2013-04-07 21:05:00,37.0,31.0,-100.00,East,98,5.0,7.0,80,0.00,,,0.05,0.000000,,2013-04-08 02:05:00,
2013-04-07 21:33:00,37.0,31.0,-100.00,East,98,5.0,7.0,80,0.00,,,0.05,0.000000,,2013-04-08 02:33:00,
2013-04-07 21:54:00,37.0,31.0,-100.00,East,98,5.0,7.0,80,0.00,,,0.05,0.000000,,2013-04-08 02:54:00,
2013-04-07 22:37:00,37.0,32.0,-100.00,ESE,109,7.0,11.0,81,0.00,,,0.01,0.000000,,2013-04-08 03:37:00,
2013-04-07 22:48:00,37.0,32.0,-100.00,ESE,109,7.0,11.0,81,0.00,,,0.01,0.000000,,2013-04-08 03:48:00,
2013-04-07 22:57:00,37.0,32.0,-100.00,ESE,109,7.0,11.0,81,0.00,,,0.01,0.000000,,2013-04-08 03:57:00,
2013-04-07 23:03:00,37.0,32.0,-100.00,ESE,109,7.0,11.0,81,0.00,,,0.01,0.000000,,2013-04-08 04:03:00,
2013-04-07 23:34:00,36.0,31.0,-100.00,ESE,102,7.0,10.0,83,0.00,,,0.00,0.000000,,2013-04-08 04:34:00,
2013-04-07 23:44:00,36.0,31.0,-100.00,ESE,102,7.0,10.0,83,0.00,,,0.00,0.000000,,2013-04-08 04:44:00,
2013-04-07 23:53:00,36.0,31.0,-100.00,ESE,102,7.0,10.0,83,0.00,,,0.00,0.000000,,2013-04-08 04:53:00,